User: anonymous   Login
Location: Columbia
(38.9520°N, 92.3340°W)
Time: 23:10:42
(UTC-06:00)
Language:

SL-08 RB Rocket - Orbit

View from above orbital plane
View from above orbital plane
View from above satellite
View from above satellite

Ground track
Ground track

The orbit data is extracted from the following two-line orbital elements,

1 26387U 00033D   17351.26065413  .00000151  00000-0  34245-4 0  9995
2 26387  97.9486  50.6362 0027753 113.9544 287.0876 14.68343341934746
Epoch (UTC): 17 December 2017 06:15:20
Eccentricity: 0.0027753
inclination: 97.9486°
perigee height: 647 km
apogee height: 686 km
right ascension of ascending node: 50.6362°
argument of perigee: 113.9544°
revolutions per day: 14.68343341
mean anomaly at epoch: 287.0876°
orbit number at epoch: 93474

The dashed part of the orbit path shows where the satellite is in the earth's shadow,  

DLR